M I D A S
Marine Information and Data Acquisition System
Tripno 1645 of the Zeeleeuw from 2009-02-20 08:07:55 to 2009-02-20 15:34:15
Back to CruiseResearch ActivitiesStationsMapUnderway DataData graphs

EquipmentUnitsComments
TimeDGPSUTC
LatitudeDGPSDM.mWGS84
LongitudeDGPSDM.mWGS84
SpeedMeteo Stationm/sRelative wind speed
DirectionMeteo StationdegRelative wind direction
TemperatureMeteo Stationdeg CelciusAir temperature
PressureMeteo StationPaAtmospheric pressure
HumidityMeteo Station%Relative humidity
Missing or incorrect values are displayed as -999
Metereological data collected by the RV Zeeleeuw from 2009-02-20 07:52:33 to 2009-02-20 15:38:39
Time Latitude Longitude Speed Direction Temperature Pressure Humidity
2009-02-20 07:53 51°13.679 2°55.901 -999 -999 -999 -999 -999
2009-02-20 07:54 51°13.696 2°55.814 -999 -999 -999 -999 -999
2009-02-20 07:55 51°13.698 2°55.741 -999 -999 -999 -999 -999
2009-02-20 07:56 51°13.705 2°55.747 -999 -999 -999 -999 -999
2009-02-20 07:57 51°13.696 2°55.74 -999 -999 -999 -999 -999
2009-02-20 07:58 51°13.756 2°55.692 -999 -999 -999 -999 -999
2009-02-20 07:59 51°13.859 2°55.611 -999 -999 -999 -999 -999
2009-02-20 08:00 51°13.977 2°55.532 -999 -999 -999 -999 -999
2009-02-20 08:01 51°14.103 2°55.445 -999 -999 -999 -999 -999
2009-02-20 08:02 51°14.225 2°55.327 -999 -999 -999 -999 -999
2009-02-20 08:03 51°14.331 2°55.136 -999 -999 -999 -999 -999
2009-02-20 08:04 51°14.449 2°54.899 -999 -999 -999 -999 -999
2009-02-20 08:05 51°14.592 2°54.687 -999 -999 -999 -999 -999
2009-02-20 08:06 51°14.78 2°54.562 -999 -999 -999 -999 -999
2009-02-20 08:07 51°14.969 2°54.441 -999 -999 -999 -999 -999
2009-02-20 08:08 51°15.154 2°54.302 -999 -999 -999 -999 -999
2009-02-20 08:09 51°15.332 2°54.148 -999 -999 -999 -999 -999
2009-02-20 08:10 51°15.513 2°54.004 -999 -999 -999 -999 -999
2009-02-20 08:11 51°15.693 2°53.855 -999 -999 -999 -999 -999
2009-02-20 08:12 51°15.872 2°53.703 -999 -999 -999 -999 -999
2009-02-20 08:13 51°16.05 2°53.549 -999 -999 -999 -999 -999
2009-02-20 08:14 51°16.228 2°53.398 -999 -999 -999 -999 -999
2009-02-20 08:15 51°16.41 2°53.253 -999 -999 -999 -999 -999
2009-02-20 08:16 51°16.583 2°53.095 -999 -999 -999 -999 -999
2009-02-20 08:17 51°16.76 2°52.946 -999 -999 -999 -999 -999
2009-02-20 08:18 51°16.934 2°52.791 -999 -999 -999 -999 -999
2009-02-20 08:19 51°17.108 2°52.634 -999 -999 -999 -999 -999
2009-02-20 08:20 51°17.271 2°52.45 -999 -999 -999 -999 -999
2009-02-20 08:21 51°17.422 2°52.24 -999 -999 -999 -999 -999
2009-02-20 08:22 51°17.571 2°52.026 -999 -999 -999 -999 -999
2009-02-20 08:23 51°17.717 2°51.812 -999 -999 -999 -999 -999
2009-02-20 08:24 51°17.865 2°51.594 -999 -999 -999 -999 -999
2009-02-20 08:25 51°18.013 2°51.377 -999 -999 -999 -999 -999
2009-02-20 08:26 51°18.161 2°51.159 -999 -999 -999 -999 -999
2009-02-20 08:27 51°18.309 2°50.934 -999 -999 -999 -999 -999
2009-02-20 08:28 51°18.45 2°50.704 -999 -999 -999 -999 -999
2009-02-20 08:29 51°18.596 2°50.478 -999 -999 -999 -999 -999
2009-02-20 08:30 51°18.745 2°50.265 -999 -999 -999 -999 -999
2009-02-20 08:31 51°18.898 2°50.049 -999 -999 -999 -999 -999
2009-02-20 08:32 51°19.041 2°49.824 -999 -999 -999 -999 -999
2009-02-20 08:33 51°19.192 2°49.612 -999 -999 -999 -999 -999
2009-02-20 08:34 51°19.341 2°49.397 -999 -999 -999 -999 -999
2009-02-20 08:35 51°19.489 2°49.18 -999 -999 -999 -999 -999
2009-02-20 08:36 51°19.639 2°48.967 -999 -999 -999 -999 -999
2009-02-20 08:37 51°19.789 2°48.751 -999 -999 -999 -999 -999
2009-02-20 08:38 51°19.936 2°48.529 -999 -999 -999 -999 -999
2009-02-20 08:39 51°20.081 2°48.306 -999 -999 -999 -999 -999
2009-02-20 08:40 51°20.231 2°48.09 -999 -999 -999 -999 -999
2009-02-20 08:41 51°20.415 2°47.947 -999 -999 -999 -999 -999
2009-02-20 08:42 51°20.606 2°47.824 -999 -999 -999 -999 -999
2009-02-20 08:43 51°20.796 2°47.701 -999 -999 -999 -999 -999
2009-02-20 08:44 51°20.985 2°47.577 -999 -999 -999 -999 -999
2009-02-20 08:45 51°21.163 2°47.42 -999 -999 -999 -999 -999
2009-02-20 08:46 51°21.318 2°47.218 -999 -999 -999 -999 -999
2009-02-20 08:47 51°21.462 2°46.998 -999 -999 -999 -999 -999
2009-02-20 08:48 51°21.601 2°46.771 -999 -999 -999 -999 -999
2009-02-20 08:49 51°21.738 2°46.542 -999 -999 -999 -999 -999
2009-02-20 08:50 51°21.876 2°46.313 -999 -999 -999 -999 -999
2009-02-20 08:51 51°22.011 2°46.077 -999 -999 -999 -999 -999
2009-02-20 08:52 51°22.149 2°45.838 -999 -999 -999 -999 -999
2009-02-20 08:53 51°22.288 2°45.612 -999 -999 -999 -999 -999
2009-02-20 08:54 51°22.427 2°45.378 -999 -999 -999 -999 -999
2009-02-20 08:55 51°22.564 2°45.145 -999 -999 -999 -999 -999
2009-02-20 08:56 51°22.706 2°44.919 -999 -999 -999 -999 -999
2009-02-20 08:57 51°22.837 2°44.706 -999 -999 -999 -999 -999
2009-02-20 08:58 51°22.975 2°44.484 -999 -999 -999 -999 -999
2009-02-20 08:59 51°23.119 2°44.264 -999 -999 -999 -999 -999
2009-02-20 09:00 51°23.259 2°44.039 -999 -999 -999 -999 -999
2009-02-20 09:01 51°23.394 2°43.81 -999 -999 -999 -999 -999
2009-02-20 09:02 51°23.526 2°43.578 -999 -999 -999 -999 -999
2009-02-20 09:03 51°23.663 2°43.35 -999 -999 -999 -999 -999
2009-02-20 09:04 51°23.8 2°43.126 -999 -999 -999 -999 -999
2009-02-20 09:05 51°23.934 2°42.898 -999 -999 -999 -999 -999
2009-02-20 09:06 51°24.072 2°42.674 -999 -999 -999 -999 -999
2009-02-20 09:07 51°24.205 2°42.442 -999 -999 -999 -999 -999
2009-02-20 09:08 51°24.35 2°42.219 -999 -999 -999 -999 -999
2009-02-20 09:09 51°24.491 2°42.003 -999 -999 -999 -999 -999
2009-02-20 09:10 51°24.634 2°41.779 -999 -999 -999 -999 -999
2009-02-20 09:11 51°24.774 2°41.55 -999 -999 -999 -999 -999
2009-02-20 09:12 51°24.916 2°41.319 -999 -999 -999 -999 -999
2009-02-20 09:13 51°25.056 2°41.102 -999 -999 -999 -999 -999
2009-02-20 09:14 51°25.197 2°40.879 -999 -999 -999 -999 -999
2009-02-20 09:15 51°25.341 2°40.659 -999 -999 -999 -999 -999
2009-02-20 09:16 51°25.485 2°40.439 -999 -999 -999 -999 -999
2009-02-20 09:17 51°25.63 2°40.214 -999 -999 -999 -999 -999
2009-02-20 09:18 51°25.77 2°39.997 -999 -999 -999 -999 -999
2009-02-20 09:19 51°25.915 2°39.779 -999 -999 -999 -999 -999
2009-02-20 09:20 51°26.056 2°39.556 -999 -999 -999 -999 -999
2009-02-20 09:21 51°26.2 2°39.336 -999 -999 -999 -999 -999
2009-02-20 09:22 51°26.348 2°39.122 -999 -999 -999 -999 -999
2009-02-20 09:23 51°26.497 2°38.905 -999 -999 -999 -999 -999
2009-02-20 09:24 51°26.645 2°38.685 -999 -999 -999 -999 -999
2009-02-20 09:25 51°26.794 2°38.467 -999 -999 -999 -999 -999
2009-02-20 09:26 51°26.941 2°38.241 -999 -999 -999 -999 -999
2009-02-20 09:27 51°27.078 2°38.018 -999 -999 -999 -999 -999
2009-02-20 09:28 51°27.222 2°37.791 -999 -999 -999 -999 -999
2009-02-20 09:29 51°27.361 2°37.574 -999 -999 -999 -999 -999
2009-02-20 09:30 51°27.502 2°37.353 -999 -999 -999 -999 -999
2009-02-20 09:31 51°27.643 2°37.13 -999 -999 -999 -999 -999
2009-02-20 09:32 51°27.784 2°36.908 -999 -999 -999 -999 -999
2009-02-20 09:33 51°27.921 2°36.685 -999 -999 -999 -999 -999
2009-02-20 09:34 51°28.061 2°36.465 -999 -999 -999 -999 -999
2009-02-20 09:35 51°28.202 2°36.246 -999 -999 -999 -999 -999
2009-02-20 09:36 51°28.341 2°36.028 -999 -999 -999 -999 -999
2009-02-20 09:37 51°28.479 2°35.802 -999 -999 -999 -999 -999
2009-02-20 09:38 51°28.614 2°35.583 -999 -999 -999 -999 -999
2009-02-20 09:39 51°28.784 2°35.433 -999 -999 -999 -999 -999
2009-02-20 09:40 51°28.982 2°35.441 -999 -999 -999 -999 -999
2009-02-20 09:41 51°29.173 2°35.572 -999 -999 -999 -999 -999
2009-02-20 09:42 51°29.361 2°35.723 -999 -999 -999 -999 -999
2009-02-20 09:43 51°29.547 2°35.874 -999 -999 -999 -999 -999
2009-02-20 09:44 51°29.739 2°36.024 -999 -999 -999 -999 -999
2009-02-20 09:45 51°29.927 2°36.159 -999 -999 -999 -999 -999
2009-02-20 09:46 51°30.122 2°36.284 -999 -999 -999 -999 -999
2009-02-20 09:47 51°30.317 2°36.401 -999 -999 -999 -999 -999
2009-02-20 09:48 51°30.515 2°36.522 -999 -999 -999 -999 -999
2009-02-20 09:49 51°30.713 2°36.619 -999 -999 -999 -999 -999
2009-02-20 09:50 51°30.908 2°36.718 -999 -999 -999 -999 -999
2009-02-20 09:51 51°31.108 2°36.83 -999 -999 -999 -999 -999
2009-02-20 09:52 51°31.302 2°36.936 -999 -999 -999 -999 -999
2009-02-20 09:53 51°31.503 2°37.047 -999 -999 -999 -999 -999
2009-02-20 09:54 51°31.696 2°37.154 -999 -999 -999 -999 -999
2009-02-20 09:55 51°31.893 2°37.264 -999 -999 -999 -999 -999
2009-02-20 09:56 51°32.093 2°37.376 -999 -999 -999 -999 -999
2009-02-20 09:57 51°32.287 2°37.483 -999 -999 -999 -999 -999
2009-02-20 09:58 51°32.476 2°37.584 -999 -999 -999 -999 -999
2009-02-20 09:59 51°32.669 2°37.691 -999 -999 -999 -999 -999
2009-02-20 10:00 51°32.873 2°37.805 -999 -999 -999 -999 -999
2009-02-20 10:01 51°33.071 2°37.914 -999 -999 -999 -999 -999
2009-02-20 10:02 51°33.275 2°38.024 -999 -999 -999 -999 -999
2009-02-20 10:03 51°33.472 2°38.134 -999 -999 -999 -999 -999
2009-02-20 10:04 51°33.677 2°38.239 -999 -999 -999 -999 -999
2009-02-20 10:05 51°33.878 2°38.348 -999 -999 -999 -999 -999
2009-02-20 10:06 51°34.076 2°38.455 -999 -999 -999 -999 -999
2009-02-20 10:07 51°34.28 2°38.571 -999 -999 -999 -999 -999
2009-02-20 10:08 51°34.478 2°38.686 -999 -999 -999 -999 -999
2009-02-20 10:09 51°34.682 2°38.804 -999 -999 -999 -999 -999
2009-02-20 10:10 51°34.879 2°38.915 -999 -999 -999 -999 -999
2009-02-20 10:11 51°35.079 2°39.032 -999 -999 -999 -999 -999
2009-02-20 10:12 51°35.282 2°39.131 -999 -999 -999 -999 -999
2009-02-20 10:13 51°35.49 2°39.225 -999 -999 -999 -999 -999
2009-02-20 10:14 51°35.691 2°39.314 -999 -999 -999 -999 -999
2009-02-20 10:15 51°35.895 2°39.401 -999 -999 -999 -999 -999
2009-02-20 10:16 51°36.102 2°39.497 -999 -999 -999 -999 -999
2009-02-20 10:17 51°36.303 2°39.591 -999 -999 -999 -999 -999
2009-02-20 10:18 51°36.51 2°39.685 -999 -999 -999 -999 -999
2009-02-20 10:19 51°36.712 2°39.775 -999 -999 -999 -999 -999
2009-02-20 10:20 51°36.92 2°39.871 -999 -999 -999 -999 -999
2009-02-20 10:21 51°37.121 2°39.96 -999 -999 -999 -999 -999
2009-02-20 10:22 51°37.325 2°40.057 -999 -999 -999 -999 -999
2009-02-20 10:23 51°37.533 2°40.151 -999 -999 -999 -999 -999
2009-02-20 10:24 51°37.737 2°40.247 -999 -999 -999 -999 -999
2009-02-20 10:25 51°37.942 2°40.34 -999 -999 -999 -999 -999
2009-02-20 10:26 51°38.145 2°40.434 -999 -999 -999 -999 -999
2009-02-20 10:27 51°38.354 2°40.532 -999 -999 -999 -999 -999
2009-02-20 10:28 51°38.557 2°40.623 -999 -999 -999 -999 -999
2009-02-20 10:29 51°38.767 2°40.724 -999 -999 -999 -999 -999
2009-02-20 10:30 51°38.967 2°40.836 -999 -999 -999 -999 -999
2009-02-20 10:31 51°39.171 2°40.945 -999 -999 -999 -999 -999
2009-02-20 10:32 51°39.378 2°41.061 -999 -999 -999 -999 -999
2009-02-20 10:33 51°39.577 2°41.171 -999 -999 -999 -999 -999
2009-02-20 10:34 51°39.784 2°41.289 -999 -999 -999 -999 -999
2009-02-20 10:35 51°39.983 2°41.401 -999 -999 -999 -999 -999
2009-02-20 10:36 51°40.188 2°41.516 -999 -999 -999 -999 -999
2009-02-20 10:37 51°40.391 2°41.623 -999 -999 -999 -999 -999
2009-02-20 10:38 51°40.595 2°41.725 -999 -999 -999 -999 -999
2009-02-20 10:39 51°40.797 2°41.835 -999 -999 -999 -999 -999
2009-02-20 10:40 51°40.998 2°41.951 -999 -999 -999 -999 -999
2009-02-20 10:41 51°41.201 2°42.063 -999 -999 -999 -999 -999
2009-02-20 10:42 51°41.4 2°42.171 -999 -999 -999 -999 -999
2009-02-20 10:43 51°41.607 2°42.283 -999 -999 -999 -999 -999
2009-02-20 10:44 51°41.806 2°42.391 -999 -999 -999 -999 -999
2009-02-20 10:45 51°42.013 2°42.5 -999 -999 -999 -999 -999
2009-02-20 10:46 51°42.216 2°42.613 -999 -999 -999 -999 -999
2009-02-20 10:47 51°42.415 2°42.722 -999 -999 -999 -999 -999
2009-02-20 10:48 51°42.621 2°42.834 -999 -999 -999 -999 -999
2009-02-20 10:49 51°42.823 2°42.945 -999 -999 -999 -999 -999
2009-02-20 10:50 51°43.025 2°43.056 -999 -999 -999 -999 -999
2009-02-20 10:51 51°43.223 2°43.172 -999 -999 -999 -999 -999
2009-02-20 10:52 51°43.429 2°43.289 -999 -999 -999 -999 -999
2009-02-20 10:53 51°43.605 2°43.471 -999 -999 -999 -999 -999
2009-02-20 10:54 51°43.703 2°43.78 -999 -999 -999 -999 -999
2009-02-20 10:55 51°43.673 2°44.109 -999 -999 -999 -999 -999
2009-02-20 10:56 51°43.54 2°44.358 -999 -999 -999 -999 -999
2009-02-20 10:57 51°43.404 2°44.605 -999 -999 -999 -999 -999
2009-02-20 10:58 51°43.286 2°44.868 -999 -999 -999 -999 -999
2009-02-20 10:59 51°43.172 2°45.15 -999 -999 -999 -999 -999
2009-02-20 11:00 51°43.058 2°45.427 -999 -999 -999 -999 -999
2009-02-20 11:01 51°42.944 2°45.702 -999 -999 -999 -999 -999
2009-02-20 11:02 51°42.823 2°45.959 -999 -999 -999 -999 -999
2009-02-20 11:03 51°42.654 2°46.134 -999 -999 -999 -999 -999
2009-02-20 11:04 51°42.471 2°46.087 -999 -999 -999 -999 -999
2009-02-20 11:05 51°42.299 2°45.958 -999 -999 -999 -999 -999
2009-02-20 11:06 51°42.121 2°45.853 -999 -999 -999 -999 -999
2009-02-20 11:07 51°41.946 2°45.744 -999 -999 -999 -999 -999
2009-02-20 11:08 51°41.766 2°45.635 -999 -999 -999 -999 -999
2009-02-20 11:09 51°41.589 2°45.522 -999 -999 -999 -999 -999
2009-02-20 11:10 51°41.41 2°45.414 -999 -999 -999 -999 -999
2009-02-20 11:11 51°41.235 2°45.307 -999 -999 -999 -999 -999
2009-02-20 11:12 51°41.057 2°45.2 -999 -999 -999 -999 -999
2009-02-20 11:13 51°40.88 2°45.087 -999 -999 -999 -999 -999
2009-02-20 11:14 51°40.704 2°44.972 -999 -999 -999 -999 -999
2009-02-20 11:15 51°40.526 2°44.861 -999 -999 -999 -999 -999
2009-02-20 11:16 51°40.35 2°44.752 -999 -999 -999 -999 -999
2009-02-20 11:17 51°40.173 2°44.636 -999 -999 -999 -999 -999
2009-02-20 11:18 51°39.997 2°44.519 -999 -999 -999 -999 -999
2009-02-20 11:19 51°39.822 2°44.409 -999 -999 -999 -999 -999
2009-02-20 11:20 51°39.644 2°44.295 -999 -999 -999 -999 -999
2009-02-20 11:21 51°39.465 2°44.184 -999 -999 -999 -999 -999
2009-02-20 11:22 51°39.288 2°44.071 -999 -999 -999 -999 -999
2009-02-20 11:23 51°39.115 2°43.961 -999 -999 -999 -999 -999
2009-02-20 11:24 51°38.937 2°43.848 -999 -999 -999 -999 -999
2009-02-20 11:25 51°38.764 2°43.733 -999 -999 -999 -999 -999
2009-02-20 11:26 51°38.589 2°43.614 -999 -999 -999 -999 -999
2009-02-20 11:27 51°38.413 2°43.495 -999 -999 -999 -999 -999
2009-02-20 11:28 51°38.238 2°43.378 -999 -999 -999 -999 -999
2009-02-20 11:29 51°38.064 2°43.262 -999 -999 -999 -999 -999
2009-02-20 11:30 51°37.89 2°43.142 -999 -999 -999 -999 -999
2009-02-20 11:31 51°37.715 2°43.024 -999 -999 -999 -999 -999
2009-02-20 11:32 51°37.54 2°42.904 -999 -999 -999 -999 -999
2009-02-20 11:33 51°37.364 2°42.78 -999 -999 -999 -999 -999
2009-02-20 11:34 51°37.189 2°42.657 -999 -999 -999 -999 -999
2009-02-20 11:35 51°37.012 2°42.533 -999 -999 -999 -999 -999
2009-02-20 11:36 51°36.834 2°42.409 -999 -999 -999 -999 -999
2009-02-20 11:37 51°36.657 2°42.289 -999 -999 -999 -999 -999
2009-02-20 11:38 51°36.48 2°42.166 -999 -999 -999 -999 -999
2009-02-20 11:39 51°36.3 2°42.047 -999 -999 -999 -999 -999
2009-02-20 11:40 51°36.121 2°41.922 -999 -999 -999 -999 -999
2009-02-20 11:41 51°35.943 2°41.798 -999 -999 -999 -999 -999
2009-02-20 11:42 51°35.765 2°41.671 -999 -999 -999 -999 -999
2009-02-20 11:43 51°35.584 2°41.551 -999 -999 -999 -999 -999
2009-02-20 11:44 51°35.406 2°41.425 -999 -999 -999 -999 -999
2009-02-20 11:45 51°35.227 2°41.302 -999 -999 -999 -999 -999
2009-02-20 11:46 51°35.048 2°41.181 -999 -999 -999 -999 -999
2009-02-20 11:47 51°34.868 2°41.055 -999 -999 -999 -999 -999
2009-02-20 11:48 51°34.687 2°40.938 -999 -999 -999 -999 -999
2009-02-20 11:49 51°34.505 2°40.824 -999 -999 -999 -999 -999
2009-02-20 11:50 51°34.324 2°40.712 -999 -999 -999 -999 -999
2009-02-20 11:51 51°34.146 2°40.589 -999 -999 -999 -999 -999
2009-02-20 11:52 51°33.965 2°40.468 -999 -999 -999 -999 -999
2009-02-20 11:53 51°33.785 2°40.358 -999 -999 -999 -999 -999
2009-02-20 11:54 51°33.601 2°40.255 -999 -999 -999 -999 -999
2009-02-20 11:55 51°33.418 2°40.154 -999 -999 -999 -999 -999
2009-02-20 11:56 51°33.237 2°40.043 -999 -999 -999 -999 -999
2009-02-20 11:57 51°33.054 2°39.937 -999 -999 -999 -999 -999
2009-02-20 11:58 51°32.876 2°39.834 -999 -999 -999 -999 -999
2009-02-20 11:59 51°32.716 2°39.742 -999 -999 -999 -999 -999
2009-02-20 12:00 51°32.529 2°39.682 -999 -999 -999 -999 -999
2009-02-20 12:01 51°32.338 2°39.714 -999 -999 -999 -999 -999
2009-02-20 12:02 51°32.173 2°39.872 -999 -999 -999 -999 -999
2009-02-20 12:03 51°32.111 2°40.165 -999 -999 -999 -999 -999
2009-02-20 12:04 51°32.137 2°40.495 -999 -999 -999 -999 -999
2009-02-20 12:05 51°32.152 2°40.829 -999 -999 -999 -999 -999
2009-02-20 12:06 51°32.155 2°41.163 -999 -999 -999 -999 -999
2009-02-20 12:07 51°32.15 2°41.496 -999 -999 -999 -999 -999
2009-02-20 12:08 51°32.152 2°41.825 -999 -999 -999 -999 -999
2009-02-20 12:09 51°32.279 2°42.047 -999 -999 -999 -999 -999
2009-02-20 12:10 51°32.478 2°42.134 -999 -999 -999 -999 -999
2009-02-20 12:11 51°32.675 2°42.249 -999 -999 -999 -999 -999
2009-02-20 12:12 51°32.871 2°42.368 -999 -999 -999 -999 -999
2009-02-20 12:13 51°33.067 2°42.492 -999 -999 -999 -999 -999
2009-02-20 12:14 51°33.265 2°42.61 -999 -999 -999 -999 -999
2009-02-20 12:15 51°33.462 2°42.735 -999 -999 -999 -999 -999
2009-02-20 12:16 51°33.657 2°42.862 -999 -999 -999 -999 -999
2009-02-20 12:17 51°33.853 2°42.987 -999 -999 -999 -999 -999
2009-02-20 12:18 51°34.05 2°43.114 -999 -999 -999 -999 -999
2009-02-20 12:19 51°34.246 2°43.241 -999 -999 -999 -999 -999
2009-02-20 12:20 51°34.443 2°43.37 -999 -999 -999 -999 -999
2009-02-20 12:21 51°34.639 2°43.496 -999 -999 -999 -999 -999
2009-02-20 12:22 51°34.837 2°43.627 -999 -999 -999 -999 -999
2009-02-20 12:23 51°35.034 2°43.753 -999 -999 -999 -999 -999
2009-02-20 12:24 51°35.231 2°43.877 -999 -999 -999 -999 -999
2009-02-20 12:25 51°35.428 2°44.006 -999 -999 -999 -999 -999
2009-02-20 12:26 51°35.623 2°44.135 -999 -999 -999 -999 -999
2009-02-20 12:27 51°35.818 2°44.264 -999 -999 -999 -999 -999
2009-02-20 12:28 51°36.012 2°44.393 -999 -999 -999 -999 -999
2009-02-20 12:29 51°36.207 2°44.525 -999 -999 -999 -999 -999
2009-02-20 12:30 51°36.401 2°44.652 -999 -999 -999 -999 -999
2009-02-20 12:31 51°36.597 2°44.775 -999 -999 -999 -999 -999
2009-02-20 12:32 51°36.793 2°44.898 -999 -999 -999 -999 -999
2009-02-20 12:33 51°36.989 2°45.023 -999 -999 -999 -999 -999
2009-02-20 12:34 51°37.184 2°45.146 -999 -999 -999 -999 -999
2009-02-20 12:35 51°37.378 2°45.276 -999 -999 -999 -999 -999
2009-02-20 12:36 51°37.573 2°45.406 -999 -999 -999 -999 -999
2009-02-20 12:37 51°37.77 2°45.528 -999 -999 -999 -999 -999
2009-02-20 12:38 51°37.965 2°45.659 -999 -999 -999 -999 -999
2009-02-20 12:39 51°38.162 2°45.789 -999 -999 -999 -999 -999
2009-02-20 12:40 51°38.359 2°45.917 -999 -999 -999 -999 -999
2009-02-20 12:41 51°38.557 2°46.043 -999 -999 -999 -999 -999
2009-02-20 12:42 51°38.75 2°46.167 -999 -999 -999 -999 -999
2009-02-20 12:43 51°38.945 2°46.294 -999 -999 -999 -999 -999
2009-02-20 12:44 51°39.141 2°46.415 -999 -999 -999 -999 -999
2009-02-20 12:45 51°39.336 2°46.539 -999 -999 -999 -999 -999
2009-02-20 12:46 51°39.531 2°46.662 -999 -999 -999 -999 -999
2009-02-20 12:47 51°39.724 2°46.78 -999 -999 -999 -999 -999
2009-02-20 12:48 51°39.918 2°46.899 -999 -999 -999 -999 -999
2009-02-20 12:49 51°40.112 2°47.022 -999 -999 -999 -999 -999
2009-02-20 12:50 51°40.306 2°47.141 -999 -999 -999 -999 -999
2009-02-20 12:51 51°40.5 2°47.259 -999 -999 -999 -999 -999
2009-02-20 12:52 51°40.692 2°47.383 -999 -999 -999 -999 -999
2009-02-20 12:53 51°40.882 2°47.509 -999 -999 -999 -999 -999
2009-02-20 12:54 51°41.071 2°47.631 -999 -999 -999 -999 -999
2009-02-20 12:55 51°41.262 2°47.754 -999 -999 -999 -999 -999
2009-02-20 12:56 51°41.452 2°47.878 -999 -999 -999 -999 -999
2009-02-20 12:57 51°41.629 2°48.033 -999 -999 -999 -999 -999
2009-02-20 12:58 51°41.737 2°48.303 -999 -999 -999 -999 -999
2009-02-20 12:59 51°41.727 2°48.618 -999 -999 -999 -999 -999
2009-02-20 13:00 51°41.605 2°48.866 -999 -999 -999 -999 -999
2009-02-20 13:01 51°41.453 2°49.068 -999 -999 -999 -999 -999
2009-02-20 13:02 51°41.304 2°49.277 -999 -999 -999 -999 -999
2009-02-20 13:03 51°41.147 2°49.458 -999 -999 -999 -999 -999
2009-02-20 13:04 51°40.952 2°49.497 -999 -999 -999 -999 -999
2009-02-20 13:05 51°40.756 2°49.461 -999 -999 -999 -999 -999
2009-02-20 13:06 51°40.563 2°49.398 -999 -999 -999 -999 -999
2009-02-20 13:07 51°40.374 2°49.303 -999 -999 -999 -999 -999
2009-02-20 13:08 51°40.184 2°49.212 -999 -999 -999 -999 -999
2009-02-20 13:09 51°39.995 2°49.121 -999 -999 -999 -999 -999
2009-02-20 13:10 51°39.806 2°49.032 -999 -999 -999 -999 -999
2009-02-20 13:11 51°39.617 2°48.939 -999 -999 -999 -999 -999
2009-02-20 13:12 51°39.428 2°48.846 -999 -999 -999 -999 -999
2009-02-20 13:13 51°39.239 2°48.756 -999 -999 -999 -999 -999
2009-02-20 13:14 51°39.05 2°48.659 -999 -999 -999 -999 -999
2009-02-20 13:15 51°38.857 2°48.565 -999 -999 -999 -999 -999
2009-02-20 13:16 51°38.668 2°48.471 -999 -999 -999 -999 -999
2009-02-20 13:17 51°38.477 2°48.38 -999 -999 -999 -999 -999
2009-02-20 13:18 51°38.286 2°48.282 -999 -999 -999 -999 -999
2009-02-20 13:19 51°38.096 2°48.184 -999 -999 -999 -999 -999
2009-02-20 13:20 51°37.905 2°48.088 -999 -999 -999 -999 -999
2009-02-20 13:21 51°37.716 2°47.987 -999 -999 -999 -999 -999
2009-02-20 13:22 51°37.528 2°47.883 -999 -999 -999 -999 -999
2009-02-20 13:23 51°37.336 2°47.786 -999 -999 -999 -999 -999
2009-02-20 13:24 51°37.146 2°47.685 -999 -999 -999 -999 -999
2009-02-20 13:25 51°36.958 2°47.584 -999 -999 -999 -999 -999
2009-02-20 13:26 51°36.773 2°47.486 -999 -999 -999 -999 -999
2009-02-20 13:27 51°36.59 2°47.39 -999 -999 -999 -999 -999
2009-02-20 13:28 51°36.407 2°47.284 -999 -999 -999 -999 -999
2009-02-20 13:29 51°36.223 2°47.184 -999 -999 -999 -999 -999
2009-02-20 13:30 51°36.038 2°47.088 -999 -999 -999 -999 -999
2009-02-20 13:31 51°35.854 2°46.985 -999 -999 -999 -999 -999
2009-02-20 13:32 51°35.672 2°46.876 -999 -999 -999 -999 -999
2009-02-20 13:33 51°35.488 2°46.77 -999 -999 -999 -999 -999
2009-02-20 13:34 51°35.301 2°46.659 -999 -999 -999 -999 -999
2009-02-20 13:35 51°35.113 2°46.548 -999 -999 -999 -999 -999
2009-02-20 13:36 51°34.926 2°46.443 -999 -999 -999 -999 -999
2009-02-20 13:37 51°34.739 2°46.345 -999 -999 -999 -999 -999
2009-02-20 13:38 51°34.551 2°46.246 -999 -999 -999 -999 -999
2009-02-20 13:39 51°34.363 2°46.141 -999 -999 -999 -999 -999
2009-02-20 13:40 51°34.175 2°46.04 -999 -999 -999 -999 -999
2009-02-20 13:41 51°33.986 2°45.939 -999 -999 -999 -999 -999
2009-02-20 13:42 51°33.798 2°45.826 -999 -999 -999 -999 -999
2009-02-20 13:43 51°33.608 2°45.716 -999 -999 -999 -999 -999
2009-02-20 13:44 51°33.419 2°45.605 -999 -999 -999 -999 -999
2009-02-20 13:45 51°33.229 2°45.494 -999 -999 -999 -999 -999
2009-02-20 13:46 51°33.039 2°45.384 -999 -999 -999 -999 -999
2009-02-20 13:47 51°32.848 2°45.277 -999 -999 -999 -999 -999
2009-02-20 13:48 51°32.657 2°45.173 -999 -999 -999 -999 -999
2009-02-20 13:49 51°32.467 2°45.066 -999 -999 -999 -999 -999
2009-02-20 13:50 51°32.279 2°44.956 -999 -999 -999 -999 -999
2009-02-20 13:51 51°32.088 2°44.853 -999 -999 -999 -999 -999
2009-02-20 13:52 51°31.897 2°44.744 -999 -999 -999 -999 -999
2009-02-20 13:53 51°31.705 2°44.643 -999 -999 -999 -999 -999
2009-02-20 13:54 51°31.513 2°44.531 -999 -999 -999 -999 -999
2009-02-20 13:55 51°31.323 2°44.418 -999 -999 -999 -999 -999
2009-02-20 13:56 51°31.131 2°44.303 -999 -999 -999 -999 -999
2009-02-20 13:57 51°30.94 2°44.192 -999 -999 -999 -999 -999
2009-02-20 13:58 51°30.75 2°44.082 -999 -999 -999 -999 -999
2009-02-20 13:59 51°30.557 2°43.967 -999 -999 -999 -999 -999
2009-02-20 14:00 51°30.365 2°43.86 -999 -999 -999 -999 -999
2009-02-20 14:01 51°30.175 2°43.751 -999 -999 -999 -999 -999
2009-02-20 14:02 51°29.984 2°43.648 -999 -999 -999 -999 -999
2009-02-20 14:03 51°29.793 2°43.536 -999 -999 -999 -999 -999
2009-02-20 14:04 51°29.601 2°43.426 -999 -999 -999 -999 -999
2009-02-20 14:05 51°29.407 2°43.464 -999 -999 -999 -999 -999
2009-02-20 14:06 51°29.216 2°43.579 -999 -999 -999 -999 -999
2009-02-20 14:07 51°29.038 2°43.732 -999 -999 -999 -999 -999
2009-02-20 14:08 51°28.864 2°43.892 -999 -999 -999 -999 -999
2009-02-20 14:09 51°28.692 2°44.045 -999 -999 -999 -999 -999
2009-02-20 14:10 51°28.517 2°44.199 -999 -999 -999 -999 -999
2009-02-20 14:11 51°28.341 2°44.349 -999 -999 -999 -999 -999
2009-02-20 14:12 51°28.166 2°44.496 -999 -999 -999 -999 -999
2009-02-20 14:13 51°27.989 2°44.641 -999 -999 -999 -999 -999
2009-02-20 14:14 51°27.814 2°44.791 -999 -999 -999 -999 -999
2009-02-20 14:15 51°27.641 2°44.941 -999 -999 -999 -999 -999
2009-02-20 14:16 51°27.464 2°45.09 -999 -999 -999 -999 -999
2009-02-20 14:17 51°27.287 2°45.238 -999 -999 -999 -999 -999
2009-02-20 14:18 51°27.108 2°45.386 -999 -999 -999 -999 -999
2009-02-20 14:19 51°26.93 2°45.535 -999 -999 -999 -999 -999
2009-02-20 14:20 51°26.753 2°45.688 -999 -999 -999 -999 -999
2009-02-20 14:21 51°26.574 2°45.836 -999 -999 -999 -999 -999
2009-02-20 14:22 51°26.397 2°45.989 -999 -999 -999 -999 -999
2009-02-20 14:23 51°26.218 2°46.14 -999 -999 -999 -999 -999
2009-02-20 14:24 51°26.038 2°46.281 -999 -999 -999 -999 -999
2009-02-20 14:25 51°25.848 2°46.387 -999 -999 -999 -999 -999
2009-02-20 14:26 51°25.65 2°46.436 -999 -999 -999 -999 -999
2009-02-20 14:27 51°25.451 2°46.47 -999 -999 -999 -999 -999
2009-02-20 14:28 51°25.255 2°46.533 -999 -999 -999 -999 -999
2009-02-20 14:29 51°25.065 2°46.629 -999 -999 -999 -999 -999
2009-02-20 14:30 51°24.885 2°46.768 -999 -999 -999 -999 -999
2009-02-20 14:31 51°24.705 2°46.906 -999 -999 -999 -999 -999
2009-02-20 14:32 51°24.524 2°47.038 -999 -999 -999 -999 -999
2009-02-20 14:33 51°24.341 2°47.172 -999 -999 -999 -999 -999
2009-02-20 14:34 51°24.156 2°47.303 -999 -999 -999 -999 -999
2009-02-20 14:35 51°23.977 2°47.454 -999 -999 -999 -999 -999
2009-02-20 14:36 51°23.802 2°47.603 -999 -999 -999 -999 -999
2009-02-20 14:37 51°23.628 2°47.749 -999 -999 -999 -999 -999
2009-02-20 14:38 51°23.455 2°47.898 -999 -999 -999 -999 -999
2009-02-20 14:39 51°23.283 2°48.045 -999 -999 -999 -999 -999
2009-02-20 14:40 51°23.112 2°48.196 -999 -999 -999 -999 -999
2009-02-20 14:41 51°22.936 2°48.344 -999 -999 -999 -999 -999
2009-02-20 14:42 51°22.76 2°48.488 -999 -999 -999 -999 -999
2009-02-20 14:43 51°22.581 2°48.631 -999 -999 -999 -999 -999
2009-02-20 14:44 51°22.404 2°48.774 -999 -999 -999 -999 -999
2009-02-20 14:45 51°22.233 2°48.915 -999 -999 -999 -999 -999
2009-02-20 14:46 51°22.055 2°49.037 -999 -999 -999 -999 -999
2009-02-20 14:47 51°21.871 2°49.149 -999 -999 -999 -999 -999
2009-02-20 14:48 51°21.69 2°49.265 -999 -999 -999 -999 -999
2009-02-20 14:49 51°21.504 2°49.381 -999 -999 -999 -999 -999
2009-02-20 14:50 51°21.319 2°49.499 -999 -999 -999 -999 -999
2009-02-20 14:51 51°21.135 2°49.623 -999 -999 -999 -999 -999
2009-02-20 14:52 51°20.954 2°49.745 -999 -999 -999 -999 -999
2009-02-20 14:53 51°20.774 2°49.875 -999 -999 -999 -999 -999
2009-02-20 14:54 51°20.592 2°50.004 -999 -999 -999 -999 -999
2009-02-20 14:55 51°20.411 2°50.131 -999 -999 -999 -999 -999
2009-02-20 14:56 51°20.228 2°50.25 -999 -999 -999 -999 -999
2009-02-20 14:57 51°20.044 2°50.375 -999 -999 -999 -999 -999
2009-02-20 14:58 51°19.86 2°50.504 -999 -999 -999 -999 -999
2009-02-20 14:59 51°19.682 2°50.638 -999 -999 -999 -999 -999
2009-02-20 15:00 51°19.501 2°50.763 -999 -999 -999 -999 -999
2009-02-20 15:01 51°19.318 2°50.889 -999 -999 -999 -999 -999
2009-02-20 15:02 51°19.133 2°51.014 -999 -999 -999 -999 -999
2009-02-20 15:03 51°18.949 2°51.143 -999 -999 -999 -999 -999
2009-02-20 15:04 51°18.765 2°51.265 -999 -999 -999 -999 -999
2009-02-20 15:05 51°18.578 2°51.388 -999 -999 -999 -999 -999
2009-02-20 15:06 51°18.393 2°51.512 -999 -999 -999 -999 -999
2009-02-20 15:07 51°18.201 2°51.613 -999 -999 -999 -999 -999
2009-02-20 15:08 51°18.012 2°51.713 -999 -999 -999 -999 -999
2009-02-20 15:09 51°17.823 2°51.811 -999 -999 -999 -999 -999
2009-02-20 15:10 51°17.636 2°51.925 -999 -999 -999 -999 -999
2009-02-20 15:11 51°17.453 2°52.058 -999 -999 -999 -999 -999
2009-02-20 15:12 51°17.27 2°52.188 -999 -999 -999 -999 -999
2009-02-20 15:13 51°17.084 2°52.316 -999 -999 -999 -999 -999
2009-02-20 15:14 51°16.899 2°52.439 -999 -999 -999 -999 -999
2009-02-20 15:15 51°16.72 2°52.578 -999 -999 -999 -999 -999
2009-02-20 15:16 51°16.533 2°52.699 -999 -999 -999 -999 -999
2009-02-20 15:17 51°16.343 2°52.815 -999 -999 -999 -999 -999
2009-02-20 15:18 51°16.153 2°52.927 -999 -999 -999 -999 -999
2009-02-20 15:19 51°15.963 2°53.044 -999 -999 -999 -999 -999
2009-02-20 15:20 51°15.777 2°53.172 -999 -999 -999 -999 -999
2009-02-20 15:21 51°15.592 2°53.304 -999 -999 -999 -999 -999
2009-02-20 15:22 51°15.406 2°53.432 -999 -999 -999 -999 -999
2009-02-20 15:23 51°15.227 2°53.574 -999 -999 -999 -999 -999
2009-02-20 15:24 51°15.047 2°53.72 -999 -999 -999 -999 -999
2009-02-20 15:25 51°14.893 2°53.915 -999 -999 -999 -999 -999
2009-02-20 15:26 51°14.763 2°54.147 -999 -999 -999 -999 -999
2009-02-20 15:27 51°14.652 2°54.403 -999 -999 -999 -999 -999
2009-02-20 15:28 51°14.538 2°54.653 -999 -999 -999 -999 -999
2009-02-20 15:29 51°14.439 2°54.914 -999 -999 -999 -999 -999
2009-02-20 15:30 51°14.327 2°55.165 -999 -999 -999 -999 -999
2009-02-20 15:31 51°14.221 2°55.32 -999 -999 -999 -999 -999
2009-02-20 15:32 51°14.112 2°55.438 -999 -999 -999 -999 -999
2009-02-20 15:33 51°13.989 2°55.522 -999 -999 -999 -999 -999
2009-02-20 15:34 51°13.864 2°55.605 -999 -999 -999 -999 -999
2009-02-20 15:35 51°13.751 2°55.695 -999 -999 -999 -999 -999
2009-02-20 15:36 51°13.693 2°55.818 -999 -999 -999 -999 -999
2009-02-20 15:37 51°13.665 2°55.925 -999 -999 -999 -999 -999